Tracking 17264 objects as of 1-September-2015
HD Live streaming from Space Station

FENGYUN 2B AKM

Track FENGYUN 2B AKM now!
FENGYUN 2B AKM is classified as:


NORAD ID: 26460
Int'l Code: 2000-032C
Perigee: 35,731.6 km
Apogee: 35,899.4 km
Inclination: 11.6 °
Period: 1,437.2 minutes
Semi major axis: 42186 km
RCS: 7.9432 m2 (large)
Launch date: June 25, 2000
Source: People's Republic of China (PRC)

Note: This is a ROCKET BODY
Your satellite tracking list
Your tracking list is empty





NASA's NSSDC Master Catalog

Two Line Element Set (TLE):
1 26460U 00032C   15242.59385647 +.00000010 +00000-0 +00000-0 0  9995
2 26460 011.6153 039.9778 0019887 292.6629 040.1697 01.00194179082671

Source of the keplerian elements: AFSPC

N2YO: 286